Regional Weather Roundup
Issued by NWS Cleveland, OH

Home | Current Version | Previous Version | Graphics & Text | Print | Product List | Glossary On
Versions: 1 2 3 4 5 6 7 8 9 10 11 12 13 14 15 16 17 18 19 20 21 22 23 24 25 26 27 28 29 30 31 32 33 34 35 36 37 38 39 40 41 42 43 44 45 46 47 48 49 50
000
ASUS41 KCLE 291910
RWRCLE
OHIO REGIONAL WEATHER ROUNDUP
NATIONAL WEATHER SERVICE CLEVELAND, OH
300 PM EDT TUE JUL 29 2014

NOTE: "FAIR" INDICATES FEW OR NO CLOUDS BELOW 12,000 FEET WITH NO
SIGNIFICANT WEATHER AND/OR OBSTRUCTIONS TO VISIBILITY.

OHZ001>008-015>018-024>027-034-035-043-044-292000-
   NORTHWEST OHIO

CITY           SKY/WX    TMP DP  RH WIND       PRES   REMARKS
DEFIANCE       PTSUNNY   71  51  49 W6        30.02F
FINDLAY        MOSUNNY   72  51  47 NW8       30.01F
TOLEDO EXPRESS PTSUNNY   71  50  47 W13       30.00F
TOLEDO EXEC    PTSUNNY   72  51  47 W12       30.01F
LIMA           PTSUNNY   70  53  54 VRB3      30.04S
$$

OHZ009>014-019>023-028>033-038-089-292000-
   NORTHEAST OHIO

CITY           SKY/WX    TMP DP  RH WIND       PRES   REMARKS
CLE-HOPKINS    MOSUNNY   69  52  54 NW9       30.02F
CLE-LAKEFRONT  SUNNY     67  52  58 NW9       30.00F
CUY CO. ARPT   NOT AVBL
LORAIN-ELYRIA  PTSUNNY   70  50  49 VRB7      30.02F
ASHTABULA      MOSUNNY   67  52  58 NW9       30.00F
AKRON-CANTON   PTSUNNY   68  47  46 W8        30.02F
WOOSTER        MOSUNNY   66  50  56 W8        30.03F
MANSFIELD      MOSUNNY   68  47  46 W6        30.04F
YOUNGSTOWN     CLOUDY    66  52  60 VRB5      30.00F
$$

OHZ042-051>053-060>062-070>072-077>081-292000-
  SOUTHWEST OHIO

CITY           SKY/WX    TMP DP  RH WIND       PRES   REMARKS
CINC-COVINGTON MOSUNNY   70  50  49 VRB3      30.08R
CINC-LUNKEN    MOSUNNY   71  50  47 CALM      30.07S
HAMILTON       SUNNY     71  51  49 CALM      30.08S
DAYTON         MOSUNNY   70  52  52 NW5       30.07S
WRIGHT-PAT AFB SUNNY     69  51  53 VRB5      30.06S
DAYTON GENERAL MOSUNNY   69  50  50 VRB5      30.06S
WILMINGTON     MOSUNNY   69  48  47 MISG      30.06S
$$

OHZ036-037-039>041-045>050-054>059-063>069-073>076-082>088-292000-
  CENTRAL AND SOUTHEAST OHIO

CITY           SKY/WX    TMP DP  RH WIND       PRES   REMARKS
COLUMBUS       PTSUNNY   71  48  43 W8        30.04S
OSU AIRPORT    PTSUNNY   70  49  47 N7        30.04F
BOLTON FIELD   PTSUNNY   68  52  56 W6        30.05S
RICKENBACK AFB MOSUNNY   71  44  38 W8        30.03F
NEWARK         CLOUDY    69  50  50 W8        30.04S
MARION         MOSUNNY   68  48  48 NW5       30.04F
LANCASTER      PTSUNNY   68  51  54 CALM      30.04F
ZANESVILLE     CLOUDY    68  49  50 CALM      30.03F
NEW PHILLY     CLOUDY    66  52  60 W5        30.03F
$$



USA.gov is the U.S. government's official web portal to all federal, state and local government web resources and services.